Boone, IA

5:26 PM CST on January 20, 2018 (GMT -0600)
Boone Municipal

Weather History for KBNW - December, 2012

Change the Weather History Date:

Tuesday, December 18, 2012

  Actual Average Record
Temperature  
Mean Temperature 30 °F -  
Max Temperature 33 °F 30 °F 55 °F (1962)
Min Temperature 28 °F 12 °F -24 °F (1985)
Degree Days  
Heating Degree Days 34    
Moisture  
Dew Point 29 °F    
Average Humidity 92    
Maximum Humidity 96    
Minimum Humidity 86    
Precipitation  
Precipitation 0.00 in - - ()
Sea Level Pressure  
Sea Level Pressure 29.66 in    
Wind  
Wind Speed 8 mph (WSW)    
Max Wind Speed 16 mph    
Max Gust Speed 22 mph    
Visibility 5 miles    
Events      
Averages and records for this station are not official NWS values.
T = Trace of Precipitation, MM = Missing Value Source: NWS Daily Summary

Daily Weather History Graph

Daily Weather History Graph

Search for Another Location

Airport or City:

Trip Planner

Search our weather history database for the weather conditions in past years. The results will help you decide how hot, cold, wet, or windy it might be!

Date:

Astronomy

Dec. 18, 2012 Rise Set
Actual Time 7:38 AM CST 4:45 PM CST
Civil Twilight 7:07 AM CST 5:17 PM CST
Nautical Twilight 6:31 AM CST 5:52 PM CST
Astronomical Twilight 5:57 AM CST 6:26 PM CST
Moon 11:13 AM CST (12/18) 11:18 PM CST (12/18)
Length of Visible Light 10h 10m
Length of Day
9h 06m
Waxing Crescent, 35% of the Moon is Illuminated
Dec 18
Waxing Crescent
Dec 19
First Quarter
Dec 28
Full
Jan 4
Last Quarter
Jan 11
New

Hourly Weather History & Observations

Time (CST) Temp. Windchill Dew Point Humidity Pressure Visibility Wind Dir Wind Speed Gust Speed Precip Events Conditions
12:15 AM 31.1 °F 27.7 °F 28.9 °F 92% 29.68 in 5.0 mi South 3.5 mph - N/A   Overcast
12:35 AM 31.1 °F 24.5 °F 28.8 °F 91% 29.67 in 5.0 mi South 6.9 mph - N/A   Overcast
12:55 AM 31.1 °F 26.4 °F 28.9 °F 92% 29.67 in 5.0 mi South 4.6 mph - N/A   Overcast
1:15 AM 30.9 °F 26.2 °F 28.8 °F 92% 29.66 in 5.0 mi South 4.6 mph - N/A   Overcast
1:35 AM 30.9 °F 26.2 °F 28.9 °F 92% 29.65 in 5.0 mi SE 4.6 mph - N/A   Overcast
1:55 AM 30.9 °F 23.5 °F 29.1 °F 93% 29.64 in 5.0 mi ESE 8.1 mph - N/A   Overcast
2:15 AM 30.9 °F 23.5 °F 29.1 °F 93% 29.63 in 4.0 mi ESE 8.1 mph - N/A   Overcast
2:35 AM 30.9 °F 22.2 °F 29.3 °F 94% 29.61 in 4.0 mi East 10.4 mph - N/A   Overcast
2:55 AM 30.7 °F 21.4 °F 29.1 °F 94% 29.61 in 4.0 mi East 11.5 mph - N/A   Overcast
3:15 AM 30.2 °F 21.9 °F 28.8 °F 94% 29.61 in 4.0 mi ESE 9.2 mph - N/A   Overcast
3:35 AM 30.2 °F 21.3 °F 28.4 °F 93% 29.59 in 3.0 mi ESE 10.4 mph - N/A   Overcast
3:55 AM 30.0 °F 20.5 °F 28.4 °F 94% 29.58 in 3.0 mi ESE 11.5 mph - N/A   Overcast
4:15 AM 30.0 °F 20.0 °F 28.4 °F 94% 29.57 in 4.0 mi East 12.7 mph - N/A   Overcast
4:35 AM 30.2 °F 18.9 °F 28.8 °F 94% 29.55 in 4.0 mi East 16.1 mph - N/A   Overcast
4:55 AM 30.2 °F 19.8 °F 28.9 °F 95% 29.54 in 3.0 mi East 13.8 mph - N/A   Overcast
5:15 AM 30.6 °F 19.8 °F 29.1 °F 94% 29.52 in 3.0 mi East 15.0 mph - N/A   Overcast
5:35 AM 30.9 °F 20.7 °F 29.7 °F 95% 29.52 in 2.5 mi ESE 13.8 mph - N/A   Overcast
6:15 AM 31.1 °F 21.4 °F 29.8 °F 95% 29.52 in 2.5 mi ESE 12.7 mph - N/A   Overcast
6:35 AM 31.1 °F 21.9 °F 29.8 °F 95% 29.52 in 3.0 mi SE 11.5 mph - N/A   Overcast
6:55 AM 31.5 °F 21.8 °F 30.0 °F 94% 29.50 in 2.5 mi ESE 12.7 mph - N/A   Overcast
7:15 AM 31.5 °F 22.9 °F 30.0 °F 94% 29.51 in 2.5 mi ESE 10.4 mph - N/A   Overcast
7:35 AM 31.5 °F 22.9 °F 30.0 °F 94% 29.49 in 2.5 mi ESE 10.4 mph - N/A   Overcast
7:55 AM 31.5 °F 22.9 °F 30.0 °F 94% 29.49 in 1.5 mi SE 10.4 mph - N/A   Overcast
8:15 AM 31.3 °F 23.9 °F 29.8 °F 94% 29.48 in 1.2 mi SE 8.1 mph - N/A   Overcast
8:35 AM 31.5 °F 22.3 °F 30.0 °F 94% 29.47 in 1.0 mi SE 11.5 mph - N/A   Overcast
8:55 AM 31.5 °F 25.8 °F 30.2 °F 95% 29.49 in 0.8 mi SE 5.8 mph - N/A   Overcast
9:15 AM 31.5 °F - 30.2 °F 95% 29.49 in 1.2 mi Calm Calm - N/A   Overcast
9:35 AM 32.0 °F - 30.9 °F 96% 29.49 in 1.8 mi Calm Calm - N/A   Overcast
9:55 AM 32.0 °F - 30.9 °F 96% 29.50 in 2.0 mi Calm Calm - N/A   Overcast
10:15 AM 32.4 °F - 30.9 °F 94% 29.52 in 2.5 mi Calm Calm - N/A   Overcast
10:35 AM 32.9 °F 28.5 °F 31.1 °F 93% 29.53 in 3.0 mi WNW 4.6 mph - N/A   Overcast
10:55 AM 32.9 °F 27.5 °F 31.1 °F 93% 29.54 in 2.0 mi WNW 5.8 mph - N/A   Overcast
11:15 AM 33.1 °F 26.1 °F 31.5 °F 94% 29.55 in 1.8 mi WNW 8.1 mph - N/A   Overcast
11:35 AM 32.9 °F 25.3 °F 31.6 °F 95% 29.56 in 1.8 mi WNW 9.2 mph - N/A   Overcast
11:55 AM 32.9 °F 23.2 °F 31.5 °F 94% 29.57 in 2.5 mi WNW 13.8 mph 17.3 mph N/A   Overcast
12:15 PM 32.9 °F 23.7 °F 31.3 °F 94% 29.58 in 2.0 mi NW 12.7 mph 21.9 mph N/A   Overcast
12:35 PM 32.5 °F 22.3 °F 31.1 °F 94% 29.59 in 2.0 mi WNW 15.0 mph 20.7 mph N/A   Overcast
12:55 PM 32.4 °F 23.0 °F 31.1 °F 95% 29.60 in 2.5 mi WNW 12.7 mph 19.6 mph N/A   Overcast
1:15 PM 32.9 °F 24.1 °F 31.1 °F 93% 29.60 in 5.0 mi NW 11.5 mph - N/A   Overcast
1:35 PM 32.5 °F 21.9 °F 29.8 °F 90% 29.61 in 7.0 mi NW 16.1 mph - N/A   Overcast
1:55 PM 32.4 °F 24.0 °F 29.8 °F 90% 29.63 in 5.0 mi NNW 10.4 mph - N/A   Overcast
2:15 PM 32.5 °F 24.2 °F 29.8 °F 90% 29.66 in 5.0 mi WNW 10.4 mph - N/A   Overcast
2:35 PM 32.9 °F 24.7 °F 29.5 °F 87% 29.67 in 7.0 mi WNW 10.4 mph - N/A   Overcast
2:55 PM 32.4 °F 23.0 °F 29.5 °F 89% 29.69 in 5.0 mi WNW 12.7 mph - N/A   Overcast
3:15 PM 32.2 °F 23.2 °F 29.3 °F 89% 29.69 in 5.0 mi WNW 11.5 mph - N/A   Overcast
3:35 PM 32.0 °F 23.0 °F 29.3 °F 90% 29.70 in 5.0 mi NW 11.5 mph - N/A   Overcast
3:55 PM 32.0 °F 23.0 °F 29.1 °F 89% 29.71 in 5.0 mi NW 11.5 mph - N/A   Overcast
4:15 PM 32.0 °F 23.6 °F 28.9 °F 88% 29.74 in 7.0 mi NW 10.4 mph - N/A   Overcast
4:35 PM 32.0 °F 24.8 °F 28.9 °F 88% 29.74 in 5.0 mi NNW 8.1 mph - N/A   Overcast
4:55 PM 32.0 °F 24.8 °F 28.4 °F 87% 29.74 in 7.0 mi NW 8.1 mph - N/A   Overcast
5:15 PM 32.0 °F 26.4 °F 28.4 °F 87% 29.77 in 7.0 mi WNW 5.8 mph - N/A   Overcast
5:35 PM 32.0 °F 25.6 °F 28.8 °F 88% 29.77 in 7.0 mi West 6.9 mph - N/A   Overcast
5:55 PM 31.8 °F 25.4 °F 28.4 °F 87% 29.79 in 7.0 mi West 6.9 mph - N/A   Overcast
6:15 PM 31.8 °F 26.2 °F 28.4 °F 87% 29.81 in 7.0 mi West 5.8 mph - N/A   Overcast
6:35 PM 32.0 °F 27.5 °F 28.9 °F 88% 29.82 in 7.0 mi West 4.6 mph - N/A   Overcast
6:55 PM 32.0 °F 27.5 °F 28.9 °F 88% 29.81 in 7.0 mi West 4.6 mph - N/A   Overcast
7:15 PM 32.0 °F 26.4 °F 29.1 °F 89% 29.83 in 7.0 mi West 5.8 mph - N/A   Overcast
7:35 PM 32.0 °F 27.5 °F 29.1 °F 89% 29.84 in 10.0 mi West 4.6 mph - N/A   Overcast
7:55 PM 32.0 °F 27.5 °F 29.1 °F 89% 29.84 in 10.0 mi West 4.6 mph - N/A   Overcast
8:15 PM 32.0 °F 26.4 °F 29.3 °F 90% 29.84 in 10.0 mi WSW 5.8 mph - N/A   Overcast
8:35 PM 32.2 °F 27.7 °F 29.3 °F 89% 29.84 in 10.0 mi WSW 4.6 mph - N/A   Overcast
8:55 PM 32.5 °F 24.8 °F 29.3 °F 88% 29.85 in 10.0 mi West 9.2 mph - N/A   Overcast
9:15 PM 32.5 °F 26.2 °F 29.3 °F 88% 29.84 in 10.0 mi West 6.9 mph - N/A   Overcast
9:35 PM 32.0 °F 28.7 °F 28.2 °F 86% 29.84 in 10.0 mi WNW 3.5 mph - N/A   Mostly Cloudy
9:55 PM 31.1 °F 27.7 °F 28.4 °F 90% 29.85 in 7.0 mi SW 3.5 mph - N/A   Clear
10:15 PM 30.2 °F - 27.7 °F 90% 29.86 in 7.0 mi Calm Calm - N/A   Clear
10:35 PM 30.2 °F - 28.0 °F 92% 29.87 in 7.0 mi Calm Calm - N/A   Clear
10:55 PM 28.9 °F - 26.8 °F 92% 29.86 in 5.0 mi Calm Calm - N/A   Clear
11:15 PM 30.0 °F - 28.4 °F 94% 29.86 in 7.0 mi Calm Calm - N/A   Clear
11:35 PM 28.0 °F - 26.4 °F 94% 29.86 in 4.0 mi Calm Calm - N/A   Clear
11:55 PM 28.0 °F - 26.6 °F 94% 29.86 in 4.0 mi Calm Calm - N/A   Clear